[Iaude] MPEC T22: 2023 TJ [a=1.85,e=0.71,i=7.5,H=25.2]

mpec at marsden.cfa.harvard.edu mpec at marsden.cfa.harvard.edu
Wed Oct 4 21:01:22 EDT 2023


M.P.E.C. 2023-T22                               Issued 2023 October 5, 00:59 UT

     The Minor Planet Electronic Circulars contain information on unusual
         minor planets, routine data on comets and natural satellites,
         and occasional editorial announcements.  They are published
    on behalf of Division F of the International Astronomical Union by the
          Minor Planet Center, Smithsonian Astrophysical Observatory,
                          Cambridge, MA 02138, U.S.A.
			  
             Prepared using the Tamkin Foundation Computer Network

                              MPC at CFA.HARVARD.EDU
            URL https://www.minorplanetcenter.net/    ISSN 1523-6714

                                    2023 TJ                                     


Observations:
     K23T00J 1C2023 10 03.15589 21 46 36.28 +04 24 50.2                VET022703
     K23T00J 1C2023 10 03.16147 21 47 00.53 +04 26 07.6                VET022703
     K23T00J 1C2023 10 03.16703 21 47 24.68 +04 27 27.3          18.3 GVET022703
     K23T00J*1C2023 10 04.18526022 36 41.137+06 52 34.50         19.52GVET022703
     K23T00J 1C2023 10 04.19075522 36 50.940+06 53 04.09               VET022703
     K23T00J 1C2023 10 04.19629022 37 00.674+06 53 32.57         19.20GVET022703
     K23T00J  C2023 10 04.20920022 37 22.326+06 54 30.74         18.9 GVET022H01
     K23T00J  C2023 10 04.21398722 37 30.644+06 54 54.69         18.8 GVET022H01
     K23T00J  C2023 10 04.22327822 37 46.721+06 55 41.29         18.8 GVET022H01
     K23T00J mC2023 10 04.23016522 37 59.437+06 56 21.37         18.84GVET022I52
     K23T00J mC2023 10 04.23041622 37 59.876+06 56 22.70         18.84GVET022I52
     K23T00J mC2023 10 04.23066722 38 00.294+06 56 24.11         18.82GVET022I52
     K23T00J mC2023 10 04.23091822 38 00.715+06 56 25.15         19.04GVET022I52
     K23T00J  C2023 10 04.23095722 37 59.927+06 56 18.92         18.7 GVET022H01
     K23T00J  C2023 10 04.24077022 38 08.75 +07 01 24.0                WET022X09
     K23T00J  C2023 10 04.24545222 38 16.94 +07 01 45.6                WET022X09
     K23T00J KC2023 10 04.33715 22 41 12.35 +07 09 22.1          19.2 RqET022E94
     K23T00J mC2023 10 04.34070322 41 02.648+07 04 57.29         19.14GVET022I52
     K23T00J mC2023 10 04.34094622 41 03.048+07 04 58.51         19.00GVET022I52
     K23T00J mC2023 10 04.34118822 41 03.444+07 04 59.45         18.93GVET022I52
     K23T00J mC2023 10 04.34143122 41 03.836+07 05 00.60         19.17GVET022I52
     K23T00J KC2023 10 04.34785 22 41 29.49 +07 10 09.1          19.3 RqET022E94
     K23T00J KC2023 10 04.35895 22 41 46.89 +07 10 58.7          19.3 RqET022E94
     K23T00J KC2023 10 04.36932 22 42 03.30 +07 11 45.1          19.3 RqET022E94
     K23T00J KC2023 10 04.80559822 52 26.40 +07 34 02.2          19.5 GXET022958
     K23T00J KC2023 10 04.81277722 52 34.80 +07 34 23.1          19.6 GXET022958
     K23T00J KC2023 10 04.81996022 52 43.23 +07 34 48.2          18.9 GXET022958
     K23T00J KC2023 10 04.84120822 53 06.10 +07 35 58.4                VET022104
     K23T00J KC2023 10 04.84530322 53 10.79 +07 36 11.1          19.3 GVET022104
     K23T00J KB2023 10 04.84828422 53 14.078+07 36 05.08         18.7 GXET022K74
     K23T00J KB2023 10 04.85572322 53 24.51 +07 36 42.7          19.3 GVET022I93
     K23T00J KB2023 10 04.85709722 53 24.173+07 36 32.98               XET022K74
     K23T00J KC2023 10 04.85759022 53 24.80 +07 36 50.4          19.3 GVET022104
     K23T00J KB2023 10 04.86041422 53 29.88 +07 36 57.3          19.5 GVET022I93
     K23T00J KB2023 10 04.86510422 53 35.20 +07 37 11.9          18.6 GVET022I93
     K23T00J KB2023 10 04.86581422 53 34.116+07 37 00.34         18.4 GXET022K74
     K23T00J IC2023 10 04.93064922 54 45.67 +07 40 29.9          19.6 GVET022L01
     K23T00J hC2023 10 04.93213022 54 47.26 +07 40 33.8          19.5 GVET022L01
     K23T00J hC2023 10 04.93361222 54 48.88 +07 40 38.9          19.8 GVET022L01
     K23T00J hC2023 10 04.93509422 54 50.52 +07 40 43.2          19.4 GVET022L01
     K23T00J hC2023 10 04.93734422 54 52.98 +07 40 49.4          19.4 GVET022L01

Observer details:
104 San Marcello Pistoiese.  Observers P. Bacci, M. Maestripieri.  Measurers
    P. Bacci, L. Tesi, G. Fagioli.  0.60-m F4 Reflector + CCD.
703 Catalina Sky Survey.  Observer D. Rankin.  Measurers B. Gray, D. Rankin,
    F. C. Shelly, E. C. Beshore, D. Fay, J. B. Fazekas, D. C. Fuls, A. R.
    Gibbs, A. D. Grauer, H. Groeller, J. K. Hogan, R. A. Kowalski, S. M.
    Larson, G. J. Leonard, R. L. Seaman, K. W. Wierzchos.  0.68-m Schmidt +
    10K CCD.
958 Observatoire de Dax.  Observers P. Dupouy, J. B. de Vanssay.  Measurer P.
    Dupouy.  0.43-m f/2.7 Reflector + CCD.
E94 Possum Observatory, Gisborne.  Observer J. Drummond.  0.41-m f/4.5
    Newtonian + CCD.
H01 Magdalena Ridge Observatory, Socorro.  Observers W. H. Ryan, E. V. Ryan.
    Measurer W. H. Ryan.  2.4-m f/8.9 Ritchey-Chretien + CCD.
I52 Steward Observatory, Mt. Lemmon Station.  Observer D. Rankin.  Measurers
    E. C. Beshore, D. Fay, J. B. Fazekas, D. C. Fuls, A. R. Gibbs, A. D.
    Grauer, H. Groeller, J. K. Hogan, R. A. Kowalski, S. M. Larson, G. J.
    Leonard, D. Rankin, R. L. Seaman, F. C. Shelly, K. W. Wierzchos.  1.0-m
    prime focus + CCD.
I93 St Pardon de Conques.  Observer F. Losse.  0.40-m f/3.7 reflector + CMO.
K74 Muensterschwarzach Observatory, Schwarzach.  Observer C. Gerhard.  0.30-m
    f/3.75 reflector + CMO.
L01 Visnjan Observatory, Tican.  Observer K. Korlevic.  1.0-m f/2.9 reflector
    + CCD.
X09 Deep Random Survey, Rio Hurtado.  Observers A. Schnabel, D. Ruhela.
    Measurers D. Ruhela, S. Deen.  0.43-m reflector + CMOS.

Orbital elements:
2023 TJ                                                  Earth MOID = 0.0036 AU
Epoch 2023 Sept. 13.0 TT = JDT 2460200.5                Veres                   
M  11.23677              (2000.0)            P               Q                  
n   0.39036899     Peri.  264.50378     +0.00647624     +0.99988738             
a   1.8541826      Node     5.91820     -0.85760502     +0.01251617             
e   0.7122025      Incl.    7.54470     -0.51426810     -0.00828055             
P   2.52           H   25.20          G   0.15           U   8                  
Residuals in seconds of arc
231003 703  1.0+  1.0-    231004 X09  0.6-  0.3-    231004 104  0.1-  0.7-
231003 703  0.6-  1.9-    231004 X09  0.7+  0.5-    231004 K74  0.5+  0.3-
231003 703  0.3-  0.2+    231004 E94  0.9-  0.7+    231004 I93  0.4+  0.5+
231004 703  0.7-  0.6-    231004 I52  0.3-  0.1-    231004 K74  0.3+  0.2-
231004 703  0.6+  0.7+    231004 I52  0.1-  0.1+    231004 104  0.3-  0.2-
231004 703  0.5+  0.9+    231004 I52  0.0   0.1-    231004 I93  0.8+  0.2+
231004 H01  0.0   0.2-    231004 I52  0.0   0.0     231004 I93  0.7+  0.0
231004 H01  0.0   0.3-    231004 E94  0.6+  0.4-    231004 K74  0.4+  0.2-
231004 H01  0.0   0.1+    231004 E94  1.2-  0.1-    231004 L01  0.4+  0.5+
231004 I52  0.2+  0.1-    231004 E94  1.4+  0.7+    231004 L01  0.0   0.1+
231004 I52  0.3+  0.0     231004 958  0.3+  0.4+    231004 L01  0.0   0.8+
231004 I52  0.1+  0.1+    231004 958  1.0-  2.5-    231004 L01  0.4+  0.8+
231004 I52  0.0   0.1-    231004 958  1.2-  1.0-    231004 L01  0.5+  0.4+
231004 H01  0.0   0.2-    231004 104  0.1+  0.3-

Ephemeris:
2023 TJ                  a,e,i = 1.85, 0.71, 8                   q = 0.5336
Date    TT    R. A. (2000) Decl.     Delta      r    Elong.  Phase     V
2023 09 05    12 00 57.8 -08 31 39   0.3899  0.6673    23.0   143.8    29.7
...
2023 09 20    12 15 05.0 -10 23 07   0.1609  0.8491    13.7   163.7    33.4
...
2023 09 28    12 51 44.6 -11 30 24   0.05225 0.9515    13.3   166.0    32.4
...
2023 10 04    22 30 27.3 +06 37 21   0.03202 1.0279   148.3    30.8    19.1
2023 10 05    22 56 05.7 +07 45 49   0.04475 1.0406   153.7    25.2    19.7
2023 10 06    23 10 23.0 +08 21 06   0.05781 1.0532   156.3    22.4    20.2
...
2023 10 12    23 39 02.4 +09 22 17   0.1385  1.1281   158.2    19.2    22.1
...
2023 10 20    23 49 46.9 +09 37 36   0.2503  1.2254   153.7    21.1    23.7
...
2023 11 04    00 01 39.7 +09 54 03   0.4755  1.3993   142.5    25.6    25.5

M. P. C. Staff               (C) Copyright 2023 MPC           M.P.E.C. 2023-T22




More information about the Iaude mailing list